Location: *
(46.4000°N, 12.6667°E)
Time: 08:26:54
(UTC+00:00)

BREEZE-M DEB (TANK) - Pass Details

Date: 09 April 2020
Orbit: 317 x 11716 km, 49.7° (Epoch: 01 June)

Event Time Altitude Azimuth Distance (km) Brightness Sun altitude
Rises 19:37:12 0° 226° (SW) 4,384 8.1 -17.9°
Reaches altitude 10° 19:41:26 10° 218° (SW) 2,404 6.6 -18.5°
Enters shadow 19:44:36 27° 188° (S) 1,025 4.4 -18.9°
